This demonstration page uses our WeatherBlox Daily Observations layout. Learn more.

Left ArrowRight Arrow

39.92423, -83.80882

Hourly Observations for October 28, 2020

Temp ( °F °C ) Dew Point ( °F °C ) Humidity (%) Winds ( mph kmh ) Pressure ( in mb ) Visibility ( mi km ) Precip ( " mm )
12:08 am 00:08 Cloudy with Light Rain 45 7 45 7 100 100 Calm 30.15 1021 5 8.0467 0.001 0.001
12:56 am 00:56 Cloudy with Light Rain 45 7.2 45 7.2 100 100 Calm 30.15 1021 3 4.82802 0.001 0.001
1:34 am 01:34 Cloudy with Light Rain 46 8 46 8 100 100 Calm 30.14 1021 4 6.43736 0.01 0.254
1:56 am 01:56 Cloudy with Light Rain 46 7.8 46 7.8 100 100 Calm 30.13 1020 4 6.43736 0.01 0.254
2:14 am 02:14 Cloudy with Light Rain 46 8 46 8 100 100 Calm 30.13 1020 2.5 4.02335 0.001 0.001
2:23 am 02:23 Cloudy with Light Rain 46 8 46 8 100 100 Calm 30.13 1020 4 6.43736 0.001 0.001
2:52 am 02:52 Cloudy with Mist and Fog 46 8 46 8 100 100 SSW 3 6 30.12 1020 5 8.0467 0.001 0.001
2:56 am 02:56 Cloudy with Mist and Fog 46 7.8 46 7.8 100 100 SSW 3 6 30.11 1020 5 8.0467 0.001 0.001
3:56 am 03:56 Cloudy with Mist and Fog 46 7.8 46 7.8 100 100 W 3 6 30.13 1020 6 9.65604 0 0
4:56 am 04:56 Cloudy with Mist and Fog 46 7.8 46 7.8 100 100 W 3 6 30.09 1019 4 6.43736 0.001 0.001
5:56 am 05:56 Cloudy with Mist and Fog 46 7.8 46 7.8 100 100 SW 3 6 30.09 1019 4 6.43736 0 0
6:56 am 06:56 Cloudy with Mist and Fog 47 8.3 47 8.3 100 100 W 5 7 30.09 1019 4 6.43736 0 0
7:56 am 07:56 Cloudy with Mist and Fog 47 8.3 47 8.3 100 100 NW 8 13 30.1 1019 3 4.82802 0 0
8:19 am 08:19 Cloudy with Mist and Fog 46 8 46 8 100 100 WNW 9 15 30.1 1019 2.5 4.02335 0.01 0.254
8:26 am 08:26 Cloudy with Mist and Fog 46 8 46 8 100 100 WNW 7 11 30.11 1020 3 4.82802 0.01 0.254
8:54 am 08:54 Cloudy 46 8 46 8 100 100 WNW 5 7 30.11 1020 7 11.26538 0.01 0.254
8:56 am 08:56 Cloudy 47 8.3 47 8.3 100 100 WNW 6 9 30.11 1020 7 11.26538 0.01 0.254
9:56 am 09:56 Cloudy with Mist and Fog 47 8.3 47 8.3 100 100 NNW 3 6 30.13 1020 2.5 4.02335 0 0
10:01 am 10:01 Cloudy with Mist and Fog 46 8 46 8 100 100 NW 3 6 30.14 1021 3 4.82802 0 0
10:56 am 10:56 Cloudy 48 8.9 48 8.9 100 100 NW 5 7 30.12 1020 10 16.0934 0 0
11:40 am 11:40 Cloudy 50 10 48 9 94 94 Calm 30.1 1019 10 16.0934 0 0
11:47 am 11:47 Cloudy 50 10 48 9 94 94 VRB 3 6 30.1 1019 10 16.0934 0 0
11:56 am 11:56 Cloudy 50 10 48 8.9 93 93 WNW 6 9 30.11 1020 10 16.0934 0 0
12:56 pm 12:56 Cloudy 50 10 48 8.9 93 93 W 3 6 30.11 1020 10 16.0934 0 0
1:56 pm 13:56 Cloudy 50 10 48 8.9 93 93 NNW 3 6 30.09 1019 10 16.0934 0 0
2:56 pm 14:56 Cloudy 50 10 48 8.9 93 93 SSE 3 6 30.06 1018 10 16.0934 0 0
3:56 pm 15:56 Mostly Cloudy 52 11.1 48 8.9 86 86 S 5 7 30.04 1017 10 16.0934 0 0
4:56 pm 16:56 Mostly Cloudy 52 11.1 49 9.4 89 89 S 3 6 30.03 1017 10 16.0934 0 0
5:06 pm 17:06 Mostly Cloudy 52 11 48 9 88 88 Calm 30.03 1017 10 16.0934 0 0
5:56 pm 17:56 Cloudy 51 10.6 49 9.4 92 92 Calm 30.03 1017 10 16.0934 0 0
6:36 pm 18:36 Cloudy 52 11 48 9 88 88 Calm 30.03 1017 10 16.0934 0 0
6:56 pm 18:56 Cloudy 51 10.6 50 10 96 96 Calm 30.03 1017 10 16.0934 0 0
7:33 pm 19:33 Cloudy 50 10 50 10 100 100 Calm 30.02 1017 10 16.0934 0 0
7:56 pm 19:56 Partly Cloudy 49 9.4 49 9.4 100 100 ENE 3 6 30.01 1016 10 16.0934 0 0
8:56 pm 20:56 Partly Cloudy 49 9.4 49 9.4 100 100 ESE 3 6 30.01 1016 10 16.0934 0 0
9:56 pm 21:56 Mostly Cloudy with Light Rain 49 9.4 49 9.4 100 100 E 3 6 29.99 1016 8 12.87472 0.001 0.001
10:13 pm 22:13 Cloudy with Light Rain 48 9 48 9 100 100 ENE 5 7 29.99 1015 10 16.0934 0.001 0.001
10:56 pm 22:56 Mostly Cloudy with Light Rain 49 9.4 49 9.4 100 100 E 5 7 29.95 1014 10 16.0934 0.001 0.001
11:56 pm 23:56 Cloudy with Light Rain 49 9.4 49 9.4 100 100 ESE 5 7 29.93 1014 6 9.65604 0.001 0.001

Powered by AerisWeather